• In Russia
  • List of Countries
  • For 7 days
  • Water Temperature
  • Satellite Maps
  • Weather Map
  • Weather Widgets
  • user-avatar
    Login

    Hourly Weather Lankaran

    Today, 21 July, Friday

    Time Temperature Precipitation Wind Pressure Humidity
    00:00 +20°C° 0 mm 1 mps 632 mmHg 32%
    01:00 +20°C° 0 mm 1 mps 632 mmHg 32%
    02:00 +20°C° 0 mm 1 mps 632 mmHg 32%
    03:00 +19°C° 0 mm 1 mps 632 mmHg 32%
    04:00 +20°C° 0 mm 1 mps 633 mmHg 30%
    05:00 +21°C° 0 mm 1 mps 633 mmHg 29%
    06:00 +22°C° 0 mm 1 mps 634 mmHg 27%
    07:00 +24°C° 0 mm 2 mps 634 mmHg 24%
    08:00 +26°C° 0 mm 2 mps 635 mmHg 20%
    09:00 +28°C° 0 mm 2 mps 636 mmHg 17%
    10:00 +29°C° 0 mm 3 mps 636 mmHg 16%
    11:00 +31°C° 0 mm 3 mps 636 mmHg 15%
    12:00 +33°C° 0 mm 4 mps 636 mmHg 14%
    13:00 +33°C° 0 mm 4 mps 636 mmHg 14%
    14:00 +33°C° 0 mm 4 mps 636 mmHg 15%
    15:00 +33°C° 0 mm 4 mps 635 mmHg 15%
    16:00 +30°C° 0 mm 3 mps 635 mmHg 17%
    17:00 +29°C° 0 mm 3 mps 635 mmHg 19%
    18:00 +27°C° 0 mm 2 mps 635 mmHg 20%
    19:00 +25°C° 0 mm 2 mps 634 mmHg 23%
    20:00 +23°C° 0 mm 2 mps 634 mmHg 26%
    21:00 +20°C° 0 mm 2 mps 634 mmHg 29%
    22:00 +19°C° 0 mm 2 mps 634 mmHg 28%
    23:00 +19°C° 0 mm 2 mps 634 mmHg 27%

    Tomorrow, 22 July, Saturday

    Time Temperature Precipitation Wind Pressure Humidity
    00:00 +19°C° 0 mm 2 mps 634 mmHg 25%
    01:00 +18°C° 0 mm 2 mps 634 mmHg 25%
    02:00 +18°C° 0 mm 2 mps 633 mmHg 25%
    03:00 +17°C° 0 mm 2 mps 633 mmHg 26%
    04:00 +18°C° 0 mm 2 mps 634 mmHg 26%
    05:00 +19°C° 0 mm 2 mps 634 mmHg 26%
    06:00 +20°C° 0 mm 2 mps 635 mmHg 27%
    07:00 +24°C° 0 mm 2 mps 636 mmHg 25%
    08:00 +26°C° 0 mm 2 mps 636 mmHg 23%
    09:00 +28°C° 0 mm 3 mps 637 mmHg 21%
    10:00 +29°C° 0 mm 3 mps 637 mmHg 20%
    11:00 +30°C° 0 mm 4 mps 637 mmHg 19%
    12:00 +32°C° 0 mm 4 mps 637 mmHg 19%
    13:00 +32°C° 0 mm 4 mps 637 mmHg 19%
    14:00 +32°C° 0 mm 4 mps 636 mmHg 19%
    15:00 +32°C° 0 mm 4 mps 636 mmHg 20%
    16:00 +30°C° 0 mm 3 mps 635 mmHg 23%
    17:00 +29°C° 0 mm 3 mps 635 mmHg 26%
    18:00 +27°C° 0 mm 3 mps 635 mmHg 29%
    19:00 +25°C° 0 mm 2 mps 634 mmHg 33%
    20:00 +23°C° 0 mm 2 mps 634 mmHg 37%
    21:00 +20°C° 0 mm 2 mps 634 mmHg 41%
    22:00 +20°C° 0 mm 2 mps 634 mmHg 37%
    23:00 +20°C° 0 mm 1 mps 633 mmHg 34%

    Day after tomorrow, 23 July, Sunday

    Time Temperature Precipitation Wind Pressure Humidity
    00:00 +20°C° 0 mm 1 mps 633 mmHg 30%
    01:00 +20°C° 0 mm 1 mps 633 mmHg 28%
    02:00 +19°C° 0 mm 1 mps 633 mmHg 27%
    03:00 +19°C° 0 mm 1 mps 632 mmHg 26%
    04:00 +20°C° 0 mm 1 mps 633 mmHg 25%
    05:00 +21°C° 0 mm 1 mps 633 mmHg 24%
    06:00 +23°C° 0 mm 1 mps 633 mmHg 23%
    07:00 +25°C° 0 mm 1 mps 634 mmHg 20%
    08:00 +27°C° 0 mm 2 mps 634 mmHg 17%
    09:00 +29°C° 0 mm 2 mps 635 mmHg 15%
    10:00 +30°C° 0 mm 2 mps 635 mmHg 14%
    11:00 +31°C° 0 mm 3 mps 635 mmHg 14%
    12:00 +33°C° 0 mm 3 mps 635 mmHg 13%
    13:00 +33°C° 0 mm 3 mps 634 mmHg 14%
    14:00 +34°C° 0 mm 3 mps 634 mmHg 15%
    15:00 +34°C° 0 mm 3 mps 633 mmHg 15%
    16:00 +31°C° 0 mm 3 mps 633 mmHg 19%
    17:00 +30°C° 0 mm 3 mps 632 mmHg 22%
    18:00 +29°C° 0 mm 3 mps 632 mmHg 26%
    19:00 +26°C° 0 mm 2 mps 632 mmHg 31%
    20:00 +24°C° 0 mm 2 mps 631 mmHg 35%
    21:00 +22°C° 0 mm 1 mps 631 mmHg 40%
    22:00 +22°C° 0 mm 1 mps 631 mmHg 39%
    23:00 +21°C° 0 mm 1 mps 631 mmHg 38%

    24 July, Monday

    Time Temperature Precipitation Wind Pressure Humidity
    00:00 +21°C° 0 mm 1 mps 631 mmHg 37%
    01:00 +21°C° 0 mm 1 mps 631 mmHg 36%
    02:00 +20°C° 0 mm 1 mps 631 mmHg 36%
    03:00 +20°C° 0 mm 1 mps 630 mmHg 35%
    04:00 +21°C° 0 mm 1 mps 631 mmHg 35%
    05:00 +21°C° 0 mm 1 mps 631 mmHg 35%
    06:00 +21°C° 0 mm 2 mps 632 mmHg 34%
    07:00 +24°C° 0 mm 2 mps 632 mmHg 31%
    08:00 +26°C° 0 mm 3 mps 633 mmHg 28%
    09:00 +28°C° 0 mm 3 mps 633 mmHg 25%
    10:00 +29°C° 0 mm 3 mps 633 mmHg 24%
    11:00 +30°C° 0 mm 4 mps 633 mmHg 24%
    12:00 +32°C° 0 mm 4 mps 633 mmHg 23%
    13:00 +32°C° 0 mm 4 mps 633 mmHg 26%
    14:00 +30°C° 0 mm 5 mps 632 mmHg 29%
    15:00 +30°C° 0 mm 5 mps 632 mmHg 32%
    16:00 +28°C° 0 mm 4 mps 632 mmHg 38%
    17:00 +26°C° 0 mm 4 mps 631 mmHg 45%
    18:00 +25°C° 0 mm 3 mps 631 mmHg 51%
    19:00 +22°C° 0 mm 3 mps 631 mmHg 58%
    20:00 +20°C° 0 mm 2 mps 631 mmHg 64%
    21:00 +18°C° 0 mm 2 mps 631 mmHg 71%
    22:00 +18°C° 0 mm 2 mps 631 mmHg 67%
    23:00 +18°C° 0 mm 2 mps 631 mmHg 62%

    25 July, Tuesday

    Time Temperature Precipitation Wind Pressure Humidity
    00:00 +18°C° 0 mm 2 mps 631 mmHg 58%
    01:00 +17°C° 0 mm 2 mps 631 mmHg 58%
    02:00 +17°C° 0 mm 3 mps 631 mmHg 58%
    03:00 +17°C° 0 mm 3 mps 631 mmHg 59%
    04:00 +17°C° 0 mm 3 mps 631 mmHg 57%
    05:00 +18°C° 0 mm 3 mps 632 mmHg 56%
    06:00 +19°C° 0 mm 3 mps 632 mmHg 55%
    07:00 +21°C° 0 mm 3 mps 633 mmHg 48%
    08:00 +24°C° 0 mm 3 mps 633 mmHg 41%
    09:00 +26°C° 0 mm 3 mps 634 mmHg 35%
    10:00 +27°C° 0 mm 3 mps 633 mmHg 32%
    11:00 +28°C° 0 mm 3 mps 633 mmHg 30%
    12:00 +29°C° 0 mm 4 mps 633 mmHg 27%
    13:00 +29°C° 0 mm 3 mps 633 mmHg 29%
    14:00 +29°C° 0 mm 3 mps 633 mmHg 30%
    15:00 +29°C° 0 mm 3 mps 632 mmHg 31%
    16:00 +28°C° 0 mm 3 mps 632 mmHg 37%
    17:00 +26°C° 0 mm 3 mps 631 mmHg 42%
    18:00 +25°C° 0 mm 3 mps 631 mmHg 48%
    19:00 +23°C° 0 mm 2 mps 631 mmHg 55%
    20:00 +20°C° 0 mm 2 mps 631 mmHg 62%
    21:00 +20°C° 0 mm 1 mps 631 mmHg 68%
    22:00 +19°C° 0 mm 1 mps 631 mmHg 65%
    23:00 +19°C° 0 mm 1 mps 631 mmHg 62%

    26 July, Wednesday

    Time Temperature Precipitation Wind Pressure Humidity
    00:00 +19°C° 0 mm 1 mps 631 mmHg 59%
    01:00 +19°C° 0 mm 1 mps 631 mmHg 59%
    02:00 +18°C° 0 mm 1 mps 631 mmHg 58%
    03:00 +18°C° 0 mm 1 mps 630 mmHg 57%
    04:00 +19°C° 0 mm 1 mps 631 mmHg 55%
    05:00 +20°C° 0 mm 1 mps 632 mmHg 52%
    06:00 +21°C° 0 mm 1 mps 632 mmHg 50%
    07:00 +23°C° 0 mm 2 mps 633 mmHg 44%
    08:00 +25°C° 0 mm 2 mps 633 mmHg 39%
    09:00 +27°C° 0 mm 2 mps 634 mmHg 33%
    10:00 +28°C° 0 mm 2 mps 634 mmHg 31%
    11:00 +29°C° 0 mm 3 mps 634 mmHg 29%
    12:00 +30°C° 0 mm 3 mps 634 mmHg 27%
    13:00 +30°C° 0 mm 3 mps 634 mmHg 27%
    14:00 +30°C° 0 mm 3 mps 633 mmHg 28%
    15:00 +30°C° 0 mm 4 mps 633 mmHg 29%
    16:00 +29°C° 0 mm 3 mps 633 mmHg 34%
    17:00 +27°C° 0 mm 3 mps 633 mmHg 39%
    18:00 +26°C° 0 mm 3 mps 633 mmHg 44%
    19:00 +24°C° 0 mm 2 mps 633 mmHg 49%
    20:00 +23°C° 0 mm 2 mps 633 mmHg 53%
    21:00 +20°C° 0 mm 2 mps 633 mmHg 58%
    22:00 +21°C° 0 mm 1 mps 633 mmHg 57%
    23:00 +21°C° 0 mm 1 mps 633 mmHg 56%
    Show more